| time (UTC) | temp F | wind direction | speed knots | gust knots | rain 1hr in | rain 24hr in | rain mn in | humidity % | barometer mb |
| 20260505233048 | 61 | 287 | 1.7 | 7.0 | 0.00 | 0.00 | 0.00 | 70 | 1015.5 |
| 20260505231550 | 61 | 267 | 1.7 | 4.3 | 0.00 | 0.00 | 0.00 | 69 | 1015.6 |
| 20260505230051 | 61 | 298 | 2.6 | 5.2 | 0.00 | 0.00 | 0.00 | 70 | 1015.6 |
| 20260505224549 | 61 | 300 | 0.9 | 3.5 | 0.00 | 0.00 | 0.00 | 71 | 1015.5 |
| 20260505223058 | 60 | 344 | 1.7 | 3.5 | 0.00 | 0.00 | 0.00 | 71 | 1015.6 |
| 20260505221557 | 60 | 36 | 2.6 | 4.3 | 0.00 | 0.00 | 0.00 | 71 | 1015.7 |
| 20260505220119 | 60 | 30 | 0.9 | 2.6 | 0.00 | 0.00 | 0.00 | 71 | 1015.8 |
| 20260505214604 | 60 | 281 | 0.0 | 2.6 | 0.00 | 0.00 | 0.00 | 71 | 1015.8 |
| 20260505213051 | 60 | 107 | 0.9 | 2.6 | 0.00 | 0.00 | 0.00 | 72 | 1016.0 |
| 20260505211611 | 60 | 0 | 0.9 | 4.3 | 0.00 | 0.00 | 0.00 | 72 | 1016.0 |
| 20260505210043 | 60 | 182 | 0.0 | 2.6 | 0.00 | 0.00 | 0.00 | 72 | 1016.0 |
| 20260505204549 | 60 | 0 | 0.0 | 2.6 | 0.00 | 0.00 | 0.00 | 72 | 1015.9 |
| 20260505203045 | 60 | 296 | 0.0 | 1.7 | 0.00 | 0.00 | 0.00 | 72 | 1015.9 |
| 20260505201602 | 59 | 316 | 1.7 | 4.3 | 0.00 | 0.00 | 0.00 | 72 | 1015.9 |
| 20260505200058 | 59 | 217 | 0.9 | 4.3 | 0.00 | 0.00 | 0.00 | 71 | 1016.2 |
| 20260505194600 | 60 | 204 | 0.9 | 3.5 | 0.00 | 0.00 | 0.00 | 71 | 1016.2 |
| 20260505193049 | 59 | 133 | 0.0 | 4.3 | 0.00 | 0.00 | 0.00 | 72 | 1016.4 |
| 20260505191553 | 59 | 225 | 0.9 | 2.6 | 0.00 | 0.00 | 0.00 | 71 | 1016.2 |
| 20260505190051 | 58 | 198 | 1.7 | 3.5 | 0.00 | 0.00 | 0.00 | 72 | 1016.2 |
| 20260505184545 | 58 | 35 | 1.7 | 4.3 | 0.00 | 0.00 | 0.00 | 73 | 1016.2 |
| 20260505183048 | 57 | 9 | 0.9 | 6.1 | 0.00 | 0.00 | 0.00 | 72 | 1016.2 |
| 20260505181541 | 57 | 14 | 0.9 | 5.2 | 0.00 | 0.00 | 0.00 | 72 | 1016.1 |
| 20260505180050 | 57 | 0 | 0.9 | 6.1 | 0.00 | 0.00 | 0.00 | 71 | 1016.1 |
| 20260505174548 | 57 | 313 | 0.9 | 3.5 | 0.00 | 0.00 | 0.00 | 71 | 1016.0 |
| 20260505173050 | 57 | 322 | 0.9 | 3.5 | 0.00 | 0.00 | 0.00 | 71 | 1015.7 |
| 20260505171551 | 57 | 0 | 0.9 | 3.5 | 0.00 | 0.00 | 0.00 | 71 | 1015.6 |
| 20260505170049 | 56 | 34 | 0.0 | 2.6 | 0.00 | 0.00 | 0.00 | 72 | 1015.7 |
| 20260505164549 | 57 | 0 | 0.0 | 1.7 | 0.00 | 0.00 | 0.00 | 72 | 1015.6 |
| 20260505163044 | 56 | 0 | 0.0 | 2.6 | 0.00 | 0.00 | 0.00 | 73 | 1015.5 |
| 20260505161554 | 56 | 0 | 0.0 | 2.6 | 0.00 | 0.00 | 0.00 | 74 | 1015.5 |
| 20260505153052 | 55 | 0 | 0.0 | 0.9 | 0.00 | 0.00 | 0.00 | 75 | 1015.3 |
| 20260505151549 | 54 | 0 | 0.0 | 1.7 | 0.00 | 0.00 | 0.00 | 76 | 1015.2 |
| 20260505124558 | 53 | 0 | 0.0 | 0.0 | 0.00 | 0.00 | 0.00 | 78 | 1014.6 |
| 20260505123046 | 53 | 0 | 0.0 | 0.0 | 0.00 | 0.00 | 0.00 | 78 | 1014.6 |
| 20260505121544 | 53 | 0 | 0.0 | 0.0 | 0.00 | 0.00 | 0.00 | 78 | 1014.7 |
| 20260505120049 | 53 | 0 | 0.0 | 1.7 | 0.00 | 0.00 | 0.00 | 78 | 1014.9 |
| 20260505114549 | 53 | 304 | 0.9 | 2.6 | 0.00 | 0.00 | 0.00 | 77 | 1014.9 |
| 20260505113048 | 53 | 0 | 0.0 | 2.6 | 0.00 | 0.00 | 0.00 | 77 | 1015.0 |
| 20260505111547 | 53 | 338 | 0.9 | 2.6 | 0.00 | 0.00 | 0.00 | 76 | 1014.9 |
| 20260505101546 | 54 | 313 | 0.0 | 4.3 | 0.00 | 0.00 | 0.00 | 74 | 1014.8 |
| 20260505100044 | 54 | 307 | 0.9 | 3.5 | 0.00 | 0.00 | 0.00 | 74 | 1015.0 |
| 20260505094548 | 54 | 269 | 0.9 | 3.5 | 0.00 | 0.00 | 0.00 | 74 | 1015.0 |
| 20260505093044 | 54 | 312 | 1.7 | 6.1 | 0.00 | 0.00 | 0.00 | 73 | 1015.2 |
| 20260505091542 | 54 | 303 | 1.7 | 6.1 | 0.00 | 0.00 | 0.00 | 71 | 1015.0 |
| 20260505090050 | 54 | 275 | 4.3 | 10.4 | 0.00 | 0.00 | 0.00 | 70 | 1015.3 |
| 20260505084549 | 54 | 306 | 4.3 | 8.7 | 0.00 | 0.00 | 0.00 | 70 | 1015.4 |
| 20260505083045 | 54 | 275 | 4.3 | 9.6 | 0.00 | 0.00 | 0.00 | 69 | 1015.7 |
| 20260505081544 | 54 | 303 | 7.0 | 12.2 | 0.00 | 0.00 | 0.00 | 70 | 1015.6 |
| 20260505080055 | 55 | 311 | 4.3 | 8.7 | 0.00 | 0.00 | 0.00 | 73 | 1015.7 |
| 20260505074549 | 55 | 301 | 2.6 | 7.0 | 0.00 | 0.00 | 0.00 | 75 | 1015.6 |
| 20260505073052 | 55 | 308 | 2.6 | 7.0 | 0.00 | 0.00 | 0.00 | 75 | 1015.6 |
| 20260505071548 | 55 | 313 | 3.5 | 7.8 | 0.00 | 0.00 | 0.00 | 76 | 1015.5 |
| 20260505070055 | 55 | 279 | 2.6 | 4.3 | 0.00 | 0.00 | 0.00 | 79 | 1015.2 |
| 20260505064550 | 55 | 309 | 1.7 | 4.3 | 0.00 | 0.00 | 0.00 | 79 | 1015.2 |
| 20260505063107 | 55 | 281 | 0.9 | 2.6 | 0.00 | 0.00 | 0.00 | 78 | 1015.2 |
| 20260505061543 | 55 | 300 | 1.7 | 5.2 | 0.00 | 0.00 | 0.00 | 77 | 1015.0 |
| 20260505060048 | 56 | 290 | 1.7 | 4.3 | 0.00 | 0.00 | 0.00 | 77 | 1014.9 |
| 20260505054554 | 56 | 0 | 0.9 | 4.3 | 0.00 | 0.00 | 0.00 | 76 | 1015.1 |
| 20260505053058 | 56 | 305 | 2.6 | 9.6 | 0.00 | 0.00 | 0.00 | 76 | 1015.3 |
| 20260505051543 | 56 | 280 | 2.6 | 8.7 | 0.00 | 0.00 | 0.00 | 75 | 1015.6 |
| 20260505041553 | 57 | 321 | 3.5 | 9.6 | 0.00 | 0.00 | 0.00 | 72 | 1015.1 |
| 20260505040055 | 58 | 321 | 2.6 | 9.6 | 0.00 | 0.00 | 0.00 | 70 | 1014.9 |
| 20260505034545 | 58 | 290 | 3.5 | 7.8 | 0.00 | 0.00 | 0.00 | 68 | 1014.6 |
| 20260505033044 | 59 | 341 | 2.6 | 6.1 | 0.00 | 0.00 | 0.00 | 67 | 1014.2 |
| 20260505031553 | 59 | 311 | 1.7 | 7.0 | 0.00 | 0.00 | 0.00 | 65 | 1014.0 |
| 20260505030043 | 59 | 294 | 2.6 | 8.7 | 0.00 | 0.00 | 0.00 | 65 | 1014.1 |
| 20260505024556 | 59 | 360 | 2.6 | 7.8 | 0.00 | 0.00 | 0.00 | 64 | 1014.2 |
| 20260505023041 | 60 | 11 | 3.5 | 9.6 | 0.00 | 0.00 | 0.00 | 62 | 1014.0 |
| 20260505021553 | 60 | 321 | 4.3 | 9.6 | 0.00 | 0.00 | 0.00 | 62 | 1013.9 |
| 20260505020046 | 60 | 352 | 1.7 | 10.4 | 0.00 | 0.00 | 0.00 | 63 | 1013.9 |
| 20260505014601 | 61 | 352 | 3.5 | 9.6 | 0.00 | 0.00 | 0.00 | 62 | 1013.9 |
| 20260505013042 | 61 | 343 | 1.7 | 11.3 | 0.00 | 0.00 | 0.00 | 63 | 1013.9 |
| 20260505011552 | 61 | 326 | 5.2 | 8.7 | 0.00 | 0.00 | 0.00 | 64 | 1014.1 |
| 20260505010042 | 61 | 326 | 4.3 | 10.4 | 0.00 | 0.00 | 0.00 | 63 | 1014.3 |
| 20260505004544 | 61 | 330 | 3.5 | 8.7 | 0.00 | 0.00 | 0.00 | 65 | 1014.4 |
| 20260505003043 | 61 | 319 | 5.2 | 9.6 | 0.00 | 0.00 | 0.00 | 65 | 1014.4 |
| 20260505001542 | 62 | 298 | 4.3 | 9.6 | 0.00 | 0.00 | 0.00 | 65 | 1014.4 |
| 20260504234550 | 60 | 290 | 7.0 | 10.4 | 0.00 | 0.00 | 0.00 | 68 | 1014.3 |